Пирогово

Россия / Московская область     55°58′43″N   37°39′53″E
темп.,
°C
ветер,
м/с
пор.,
м/с
влажн.,
%
обл.,
%
осадки,
мм/ч
давл.,
гПа
погр.,
м
16 мая, вс
вс1600:00+13ю39885 0.0 1009296
03:00+12ююз39940 0.0 1010315
06:00+13ююз310895 0.0 1011402
09:00+17юз58663 0.0 1012842
12:00+21юз585110 0.1 10121781
15:00+21ююз685362 0.4 10121797
18:00+20юз47605 0.4 10121225
21:00+15юз22810 0.4 101319
17 мая, пн
пн1700:00+14зюз118810 0.0 101410
03:00+13вюв2292100 0.0 101521
06:00+14в238861 0.0 101598
09:00+20вюв356499 0.0 1015553
12:00+23вюв455053 0.0 10141146
15:00+26вюв574631 0.0 10121496
18:00+25вюв495823 0.0 10111059
21:00+18вюв310865 0.1 1011270
18 мая, вт
вт1800:00+15вюв31188100 0.0 1011259
03:00+14вюв313904 0.0 1010300
06:00+16юв414765 0.0 1010440
09:00+21юв61353100 0.0 1010663
12:00+25ююв71140100 0.0 1010983
15:00+26ююв6124089 0.0 10091519
18:00+24юв5105374 0.0 1009905
21:00+18вюв4137596 0.0 1009367
19 мая, ср
ср1900:00+18вюв41477100 0.0 1008448
03:00+16вюв4148417 0.0 1008426
06:00+17юв512695 0.0 1008504
09:00+21юв58565 0.0 1008580
12:00+24ююв6104354 0.0 10081189
15:00+25юв594741 0.0 10071304
18:00+22ююв5136190 0.1 10071701
21:00+17юв3586100 0.3 1006139
20 мая, чт
чт2000:00+14юв51189100 1.7 1007500
03:00+15юв4129336 1.8 1006616
06:00+14юв4894100 0.0 1006602
09:00+15ююв3791100 0.3 1006593
12:00+17ююв697558 0.8 10071155
15:00+18ю796464 1.8 10071481
18:00+18ююз58645 0.2 10081245
21:00+14ююз5108417 0.4 1010619